Location: Nitra
(0.0000°N, 18.0833°E)
Time: 12:39:26
(UTC+02:00)

RS-44 - Pass Details

Date: 12 June 2023
Orbit: 1175 x 1510 km, 82.5° (Epoch: 28 September)

Event Time Altitude Azimuth Distance (km) Brightness Sun altitude
Rises 05:12:42 0° 148° (SSE) 4,550 ? -21.7°
Reaches altitude 10° 05:16:58 10° 129° (SE) 3,614 ? -20.7°
Maximum altitude 05:22:03 17° 93° (E) 3,138 ? -19.6°
Drops below altitude 10° 05:27:10 10° 57° (ENE) 3,659 ? -18.4°
Sets 05:31:28 0° 38° (NE) 4,635 ? -17.4°
